This is the latest recevied weather packets stored in our database for station/object Hoechsten. If no packets are shown the sender has not sent any weather packets the latest 10 day(s).
| Time | Temp. | Humidity | Pressure | Rain* | Wind** | Luminosity | Snow |
|---|---|---|---|---|---|---|---|
| 1778214731 | 5.56° C | 61% | 1012.8 hPa | 0 mm | - | - | - |
| 1778212932 | 5.56° C | 62% | 1012.7 hPa | 0 mm | - | - | - |
| 1778211131 | 5.56° C | 62% | 1012.7 hPa | 0 mm | - | - | - |
| 1778209331 | 5.56° C | 63% | 1012.6 hPa | 0 mm | - | - | - |
| 1778207531 | 6.11° C | 64% | 1012.6 hPa | 0 mm | - | - | - |
| 1778205731 | 6.67° C | 65% | 1012.6 hPa | 0 mm | - | - | - |
| 1778203931 | 6.67° C | 66% | 1012.7 hPa | 0 mm | - | - | - |
| 1778202131 | 6.67° C | 66% | 1012.7 hPa | 0 mm | - | - | - |
| 1778200330 | 7.22° C | 68% | 1012.9 hPa | 0 mm | - | - | - |
| 1778198529 | 7.22° C | 70% | 1013 hPa | 0 mm | - | - | - |
| 1778196729 | 7.22° C | 70% | 1013.3 hPa | 0 mm | - | - | - |
| 1778194935 | 7.22° C | 70% | 1013.4 hPa | 0 mm | - | - | - |
| 1778193130 | 7.78° C | 70% | 1013.7 hPa | 0 mm | - | - | - |
| 1778189531 | 8.33° C | 72% | 1013.7 hPa | 1.27 mm | - | - | - |
| 1778187729 | 8.33° C | 72% | 1013.5 hPa | 1.27 mm | - | - | - |
| 1778185929 | 9.44° C | 74% | 1013.4 hPa | 1.27 mm | - | - | - |
| 1778184129 | 9.44° C | 75% | 1013.4 hPa | 1.27 mm | - | - | - |
| 1778182330 | 10° C | 75% | 1013.3 hPa | 1.27 mm | - | - | - |
| 1778180532 | 10° C | 76% | 1012.8 hPa | 1.27 mm | - | - | - |
| 1778178730 | 10.56° C | 75% | 1012.6 hPa | 1.27 mm | - | - | - |
| 1778176930 | 11.67° C | 73% | 1012.4 hPa | 1.27 mm | - | - | - |
| 1778175130 | 11.67° C | 71% | 1012.2 hPa | 1.27 mm | - | - | - |
| 1778173330 | 12.22° C | 70% | 1012 hPa | 1.27 mm | - | - | - |
| 1778171530 | 12.78° C | 68% | 1012.1 hPa | 1.27 mm | - | - | - |
| 1778169731 | 13.33° C | 66% | 1012 hPa | 1.27 mm | - | - | - |
* Rain since midnight (hover to see other rain measurements)
** Current wind speed in m/s (hover to see current wind gust speed)